| time (UTC) | temp F | wind direction | speed knots | gust knots | rain 1hr in | rain 24hr in | rain mn in | humidity % | barometer mb |
| 20260902141823 | 54 | 314 | 1.7 | 7.0 | 0.00 | 0.00 | 0.00 | 68 | 1011.5 |
| 20260902141323 | 54 | 314 | 2.6 | 7.0 | 0.00 | 0.00 | 0.00 | 69 | 1011.5 |
| 20260902140822 | 54 | 333 | 1.7 | 5.2 | 0.00 | 0.00 | 0.00 | 69 | 1011.5 |
| 20260902140323 | 54 | 335 | 0.9 | 4.3 | 0.00 | 0.00 | 0.00 | 69 | 1011.5 |
| 20260902135819 | 54 | 334 | 0.9 | 4.3 | 0.00 | 0.00 | 0.00 | 68 | 1011.5 |
| 20260902135321 | 54 | 334 | 1.7 | 4.3 | 0.00 | 0.00 | 0.00 | 68 | 1011.6 |
| 20260902134819 | 54 | 334 | 1.7 | 4.3 | 0.00 | 0.00 | 0.00 | 67 | 1011.7 |
| 20260902134320 | 55 | 334 | 1.7 | 4.3 | 0.00 | 0.00 | 0.00 | 66 | 1011.6 |
| 20260902133820 | 55 | 333 | 1.7 | 5.2 | 0.00 | 0.00 | 0.00 | 66 | 1011.7 |
| 20260902133319 | 55 | 333 | 1.7 | 5.2 | 0.00 | 0.00 | 0.00 | 65 | 1011.7 |
| 20260902132817 | 55 | 330 | 1.7 | 7.0 | 0.00 | 0.00 | 0.00 | 64 | 1011.7 |
| 20260902132318 | 55 | 329 | 1.7 | 7.0 | 0.00 | 0.00 | 0.00 | 63 | 1011.8 |
| 20260902131814 | 55 | 308 | 1.7 | 3.5 | 0.00 | 0.00 | 0.00 | 63 | 1011.9 |
| 20260902131315 | 56 | 307 | 1.7 | 4.3 | 0.00 | 0.00 | 0.00 | 63 | 1012.0 |
| 20260902130815 | 56 | 307 | 2.6 | 6.1 | 0.00 | 0.00 | 0.00 | 63 | 1012.1 |
| 20260902130316 | 56 | 306 | 2.6 | 6.1 | 0.00 | 0.00 | 0.00 | 62 | 1012.1 |
| 20260902125814 | 56 | 322 | 2.6 | 6.1 | 0.00 | 0.00 | 0.00 | 62 | 1012.1 |
| 20260902125316 | 56 | 340 | 3.5 | 10.4 | 0.00 | 0.00 | 0.00 | 61 | 1012.2 |
| 20260902124816 | 56 | 314 | 3.5 | 10.4 | 0.00 | 0.00 | 0.00 | 61 | 1012.3 |
| 20260902124315 | 56 | 337 | 3.5 | 7.0 | 0.00 | 0.00 | 0.00 | 61 | 1012.3 |
| 20260902123814 | 56 | 335 | 4.3 | 7.8 | 0.00 | 0.00 | 0.00 | 61 | 1012.3 |
| 20260902123315 | 56 | 322 | 4.3 | 9.6 | 0.00 | 0.00 | 0.00 | 60 | 1012.4 |
| 20260902122812 | 56 | 303 | 4.3 | 9.6 | 0.00 | 0.00 | 0.00 | 60 | 1012.4 |
| 20260902122312 | 56 | 339 | 4.3 | 9.6 | 0.00 | 0.00 | 0.00 | 60 | 1012.5 |
| 20260902121813 | 56 | 321 | 4.3 | 9.6 | 0.00 | 0.00 | 0.00 | 60 | 1012.6 |
| 20260902121319 | 56 | 316 | 4.3 | 10.4 | 0.00 | 0.00 | 0.00 | 60 | 1012.6 |
| 20260902121313 | 57 | 325 | 4.3 | 9.6 | 0.00 | 0.00 | 0.00 | 60 | 1012.6 |
| 20260902120314 | 57 | 308 | 4.3 | 10.4 | 0.00 | 0.00 | 0.00 | 60 | 1012.6 |
| 20260902115813 | 56 | 300 | 3.5 | 9.6 | 0.00 | 0.00 | 0.00 | 61 | 1012.7 |
| 20260902115314 | 57 | 331 | 3.5 | 7.0 | 0.00 | 0.00 | 0.00 | 60 | 1012.7 |
| 20260902114813 | 57 | 330 | 4.3 | 8.7 | 0.00 | 0.00 | 0.00 | 60 | 1012.7 |
| 20260902114314 | 57 | 302 | 3.5 | 12.2 | 0.00 | 0.00 | 0.00 | 60 | 1012.7 |
| 20260902113811 | 57 | 312 | 3.5 | 12.2 | 0.00 | 0.00 | 0.00 | 60 | 1012.6 |
| 20260902113316 | 57 | 322 | 4.3 | 7.8 | 0.00 | 0.00 | 0.00 | 60 | 1012.7 |
| 20260902113310 | 57 | 316 | 4.3 | 8.7 | 0.00 | 0.00 | 0.00 | 60 | 1012.6 |
| 20260902112940 | 57 | 305 | 5.2 | 12.2 | 0.00 | 0.00 | 0.00 | 61 | 1012.8 |
| 20260902112500 | 58 | 299 | 4.3 | 12.2 | 0.00 | 0.00 | 0.00 | 61 | 1012.7 |
| 20260902111311 | 58 | 337 | 4.3 | 12.2 | 0.00 | 0.00 | 0.00 | 62 | 1012.8 |
| 20260902110809 | 58 | 303 | 6.1 | 13.0 | 0.00 | 0.00 | 0.00 | 62 | 1012.8 |
| 20260902110310 | 58 | 299 | 6.1 | 13.0 | 0.00 | 0.00 | 0.00 | 62 | 1012.8 |
| 20260902105808 | 58 | 319 | 4.3 | 12.2 | 0.00 | 0.00 | 0.00 | 64 | 1012.8 |
| 20260902105308 | 58 | 318 | 2.6 | 12.2 | 0.00 | 0.00 | 0.00 | 67 | 1012.8 |
| 20260902104810 | 57 | 341 | 1.7 | 9.6 | 0.00 | 0.00 | 0.00 | 68 | 1012.7 |
| 20260902104314 | 57 | 270 | 0.9 | 5.2 | 0.00 | 0.00 | 0.00 | 69 | 1012.7 |
| 20260902104308 | 57 | 296 | 0.9 | 9.6 | 0.00 | 0.00 | 0.00 | 69 | 1012.7 |
| 20260902103311 | 57 | 272 | 0.9 | 5.2 | 0.00 | 0.00 | 0.00 | 70 | 1012.7 |
| 20260902102815 | 57 | 165 | 0.0 | 0.0 | 0.00 | 0.00 | 0.00 | 71 | 1012.7 |
| 20260902102809 | 57 | 166 | 0.0 | 1.7 | 0.00 | 0.00 | 0.00 | 71 | 1012.8 |
| 20260902101814 | 57 | 165 | 0.0 | 0.0 | 0.00 | 0.00 | 0.00 | 71 | 1012.7 |
| 20260902101808 | 57 | 165 | 0.0 | 0.0 | 0.00 | 0.00 | 0.00 | 71 | 1012.7 |
| 20260902101433 | 57 | 165 | 0.0 | 0.0 | 0.00 | 0.00 | 0.00 | 72 | 1012.8 |
| 20260902100308 | 57 | 165 | 0.0 | 0.0 | 0.00 | 0.00 | 0.00 | 71 | 1012.7 |
| 20260902095808 | 57 | 165 | 0.0 | 0.0 | 0.00 | 0.00 | 0.00 | 71 | 1012.7 |
| 20260902095307 | 57 | 165 | 0.0 | 0.0 | 0.00 | 0.00 | 0.00 | 71 | 1012.6 |
| 20260902094806 | 56 | 165 | 0.0 | 0.0 | 0.00 | 0.00 | 0.00 | 71 | 1012.6 |
| 20260902094307 | 56 | 165 | 0.0 | 0.0 | 0.00 | 0.00 | 0.00 | 71 | 1012.5 |
| 20260902093812 | 56 | 165 | 0.0 | 0.9 | 0.00 | 0.00 | 0.00 | 71 | 1012.3 |
| 20260902093806 | 56 | 165 | 0.0 | 0.9 | 0.00 | 0.00 | 0.00 | 71 | 1012.5 |
| 20260902093305 | 56 | 165 | 0.0 | 0.9 | 0.00 | 0.00 | 0.00 | 71 | 1012.4 |
| 20260902092306 | 56 | 165 | 0.0 | 0.0 | 0.00 | 0.00 | 0.00 | 71 | 1012.3 |
| 20260902091804 | 56 | 165 | 0.0 | 0.0 | 0.00 | 0.00 | 0.00 | 71 | 1012.3 |
| 20260902091304 | 56 | 165 | 0.0 | 0.0 | 0.00 | 0.00 | 0.00 | 70 | 1012.2 |
| 20260902090807 | 56 | 165 | 0.0 | 0.0 | 0.00 | 0.00 | 0.00 | 70 | 1012.2 |
| 20260902090310 | 56 | 165 | 0.0 | 0.0 | 0.00 | 0.00 | 0.00 | 69 | 1012.2 |
| 20260902090305 | 56 | 165 | 0.0 | 0.9 | 0.00 | 0.00 | 0.00 | 70 | 1012.1 |
| 20260902085805 | 56 | 165 | 0.0 | 0.9 | 0.00 | 0.00 | 0.00 | 69 | 1012.1 |
| 20260902084804 | 56 | 165 | 0.0 | 0.9 | 0.00 | 0.00 | 0.00 | 69 | 1012.2 |
| 20260902084304 | 56 | 165 | 0.0 | 0.9 | 0.00 | 0.00 | 0.00 | 69 | 1012.1 |
| 20260902083804 | 57 | 165 | 0.0 | 0.9 | 0.00 | 0.00 | 0.00 | 69 | 1012.0 |
| 20260902083304 | 57 | 165 | 0.0 | 0.0 | 0.00 | 0.00 | 0.00 | 69 | 1012.1 |
| 20260902082806 | 57 | 165 | 0.0 | 0.0 | 0.00 | 0.00 | 0.00 | 68 | 1012.1 |
| 20260902082309 | 57 | 165 | 0.0 | 0.9 | 0.00 | 0.00 | 0.00 | 68 | 1012.1 |
| 20260902081811 | 57 | 165 | 0.0 | 0.9 | 0.00 | 0.00 | 0.00 | 67 | 1012.1 |
| 20260902081806 | 57 | 165 | 0.0 | 0.9 | 0.00 | 0.00 | 0.00 | 68 | 1012.1 |
| 20260902080811 | 58 | 165 | 0.9 | 1.7 | 0.00 | 0.00 | 0.00 | 66 | 1011.9 |
| 20260902080806 | 57 | 165 | 0.0 | 1.7 | 0.00 | 0.00 | 0.00 | 67 | 1012.1 |
| 20260902075806 | 58 | 165 | 0.0 | 1.7 | 0.00 | 0.00 | 0.00 | 66 | 1011.9 |
| 20260902075306 | 58 | 165 | 0.0 | 1.7 | 0.00 | 0.00 | 0.00 | 66 | 1011.9 |
| 20260902074805 | 58 | 165 | 0.0 | 2.6 | 0.00 | 0.00 | 0.00 | 65 | 1011.9 |
| 20260902074304 | 58 | 165 | 0.0 | 2.6 | 0.00 | 0.00 | 0.00 | 65 | 1011.9 |
| 20260902073804 | 58 | 165 | 0.0 | 2.6 | 0.00 | 0.00 | 0.00 | 65 | 1011.9 |
| 20260902073303 | 58 | 165 | 0.9 | 2.6 | 0.00 | 0.00 | 0.00 | 65 | 1011.9 |
| 20260902072804 | 58 | 165 | 0.9 | 2.6 | 0.00 | 0.00 | 0.00 | 65 | 1011.9 |
| 20260902072310 | 58 | 166 | 0.9 | 3.5 | 0.00 | 0.00 | 0.00 | 64 | 1011.9 |
| 20260902071311 | 59 | 185 | 0.9 | 5.2 | 0.00 | 0.00 | 0.00 | 64 | 1011.9 |
| 20260902071306 | 59 | 185 | 0.9 | 3.5 | 0.00 | 0.00 | 0.00 | 65 | 1011.9 |
| 20260902070304 | 59 | 185 | 0.9 | 5.2 | 0.00 | 0.00 | 0.00 | 64 | 1012.0 |
| 20260902065802 | 59 | 190 | 0.9 | 3.5 | 0.00 | 0.00 | 0.00 | 64 | 1012.0 |
| 20260902065301 | 60 | 191 | 1.7 | 3.5 | 0.00 | 0.00 | 0.00 | 63 | 1012.0 |
| 20260902064802 | 60 | 158 | 1.7 | 7.0 | 0.00 | 0.00 | 0.00 | 63 | 1012.0 |
| 20260902064303 | 60 | 160 | 1.7 | 7.0 | 0.00 | 0.00 | 0.00 | 63 | 1012.0 |
| 20260902063803 | 60 | 185 | 0.9 | 7.0 | 0.00 | 0.00 | 0.00 | 61 | 1012.1 |
| 20260902063307 | 60 | 205 | 0.9 | 4.3 | 0.00 | 0.00 | 0.00 | 63 | 1012.2 |
| 20260902063303 | 60 | 222 | 0.9 | 5.2 | 0.00 | 0.00 | 0.00 | 62 | 1012.1 |
| 20260902062305 | 60 | 203 | 0.9 | 4.3 | 0.00 | 0.00 | 0.00 | 63 | 1012.3 |
| 20260902061804 | 60 | 193 | 1.7 | 7.0 | 0.00 | 0.00 | 0.00 | 64 | 1012.4 |
| 20260902061303 | 60 | 205 | 1.7 | 7.0 | 0.00 | 0.00 | 0.00 | 63 | 1012.4 |
| 20260902060802 | 60 | 207 | 1.7 | 7.0 | 0.00 | 0.00 | 0.00 | 65 | 1012.4 |
| 20260902060303 | 59 | 199 | 2.6 | 7.0 | 0.00 | 0.00 | 0.00 | 66 | 1012.6 |
| 20260902055801 | 59 | 205 | 2.6 | 7.0 | 0.00 | 0.00 | 0.00 | 66 | 1012.6 |
| 20260902055302 | 59 | 175 | 1.7 | 7.0 | 0.00 | 0.00 | 0.00 | 65 | 1012.6 |
| 20260902054932 | 60 | 199 | 1.7 | 7.0 | 0.00 | 0.00 | 0.00 | 62 | 1012.8 |
| 20260902054807 | 60 | 175 | 1.7 | 6.1 | 0.00 | 0.00 | 0.00 | 63 | 1012.7 |
| 20260902054801 | 60 | 192 | 1.7 | 6.1 | 0.00 | 0.00 | 0.00 | 64 | 1012.7 |
| 20260902053932 | 60 | 197 | 1.7 | 7.0 | 0.00 | 0.00 | 0.00 | 63 | 1012.8 |
| 20260902052803 | 60 | 211 | 1.7 | 5.2 | 0.00 | 0.00 | 0.00 | 64 | 1012.9 |
| 20260902052311 | 60 | 150 | 1.7 | 6.1 | 0.00 | 0.00 | 0.00 | 63 | 1012.9 |
| 20260902052306 | 60 | 194 | 1.7 | 6.1 | 0.00 | 0.00 | 0.00 | 63 | 1013.0 |
| 20260902051930 | 60 | 212 | 2.6 | 7.8 | 0.00 | 0.00 | 0.00 | 64 | 1013.0 |
| 20260902051302 | 60 | 198 | 1.7 | 7.8 | 0.00 | 0.00 | 0.00 | 65 | 1013.0 |
| 20260902050303 | 60 | 222 | 1.7 | 7.0 | 0.00 | 0.00 | 0.00 | 64 | 1013.1 |
| 20260902045801 | 60 | 203 | 2.6 | 7.8 | 0.00 | 0.00 | 0.00 | 64 | 1013.1 |
| 20260902045301 | 60 | 175 | 1.7 | 7.8 | 0.00 | 0.00 | 0.00 | 65 | 1013.1 |
| 20260902044300 | 59 | 175 | 2.6 | 8.7 | 0.00 | 0.00 | 0.00 | 64 | 1013.1 |
| 20260902043801 | 59 | 226 | 1.7 | 7.8 | 0.00 | 0.00 | 0.00 | 63 | 1013.2 |
| 20260902043306 | 59 | 190 | 2.6 | 8.7 | 0.00 | 0.00 | 0.00 | 64 | 1013.2 |
| 20260902043302 | 59 | 204 | 2.6 | 8.7 | 0.00 | 0.00 | 0.00 | 64 | 1013.2 |
| 20260902042926 | 59 | 194 | 2.6 | 7.8 | 0.00 | 0.00 | 0.00 | 66 | 1013.3 |
| 20260902042403 | 59 | 199 | 2.6 | 7.0 | 0.00 | 0.00 | 0.00 | 64 | 1013.3 |
| 20260902041303 | 59 | 251 | 2.6 | 8.7 | 0.00 | 0.00 | 0.00 | 65 | 1013.3 |
| 20260902041257 | 59 | 189 | 2.6 | 8.7 | 0.00 | 0.00 | 0.00 | 65 | 1013.2 |
| 20260902040925 | 59 | 191 | 2.6 | 8.7 | 0.00 | 0.00 | 0.00 | 65 | 1013.3 |
| 20260902040424 | 59 | 180 | 2.6 | 8.7 | 0.00 | 0.00 | 0.00 | 65 | 1013.3 |
| 20260902035259 | 60 | 180 | 1.7 | 7.8 | 0.00 | 0.00 | 0.00 | 65 | 1013.4 |
| 20260902034755 | 59 | 219 | 2.6 | 7.0 | 0.00 | 0.00 | 0.00 | 65 | 1013.5 |
| 20260902034256 | 59 | 180 | 1.7 | 7.0 | 0.00 | 0.00 | 0.00 | 66 | 1013.5 |
| 20260902033758 | 59 | 247 | 2.6 | 7.8 | 0.00 | 0.00 | 0.00 | 67 | 1013.4 |
| 20260902033256 | 59 | 233 | 3.5 | 7.8 | 0.00 | 0.00 | 0.00 | 67 | 1013.4 |
| 20260902032754 | 59 | 197 | 2.6 | 7.8 | 0.00 | 0.00 | 0.00 | 65 | 1013.6 |
| 20260902032259 | 59 | 193 | 2.6 | 8.7 | 0.00 | 0.00 | 0.00 | 66 | 1013.7 |
| 20260902032255 | 59 | 193 | 2.6 | 8.7 | 0.00 | 0.00 | 0.00 | 67 | 1013.7 |
| 20260902031252 | 58 | 166 | 2.6 | 7.8 | 0.00 | 0.00 | 0.00 | 67 | 1014.0 |
| 20260902030753 | 58 | 175 | 3.5 | 7.8 | 0.00 | 0.00 | 0.00 | 66 | 1014.0 |
| 20260902030251 | 58 | 197 | 2.6 | 7.0 | 0.00 | 0.00 | 0.00 | 66 | 1014.2 |
| 20260902025753 | 58 | 229 | 1.7 | 7.0 | 0.00 | 0.00 | 0.00 | 68 | 1014.2 |
| 20260902025253 | 58 | 221 | 2.6 | 7.0 | 0.00 | 0.00 | 0.00 | 70 | 1014.3 |
| 20260902024753 | 58 | 185 | 2.6 | 7.0 | 0.00 | 0.00 | 0.00 | 69 | 1014.4 |
| 20260902024252 | 58 | 185 | 1.7 | 7.0 | 0.00 | 0.00 | 0.00 | 69 | 1014.7 |
| 20260902023753 | 58 | 175 | 1.7 | 7.0 | 0.00 | 0.00 | 0.00 | 69 | 1014.8 |
| 20260902023249 | 58 | 189 | 1.7 | 6.1 | 0.00 | 0.00 | 0.00 | 69 | 1014.9 |
| 20260902022751 | 58 | 175 | 1.7 | 4.3 | 0.00 | 0.00 | 0.00 | 68 | 1015.0 |
| 20260902022258 | 58 | 260 | 1.7 | 7.0 | 0.00 | 0.00 | 0.00 | 70 | 1015.1 |
| 20260902022249 | 58 | 218 | 0.9 | 3.5 | 0.00 | 0.00 | 0.00 | 69 | 1015.0 |
| 20260902021917 | 58 | 161 | 1.7 | 7.0 | 0.00 | 0.00 | 0.00 | 69 | 1015.2 |
| 20260902020753 | 58 | 249 | 1.7 | 7.0 | 0.00 | 0.00 | 0.00 | 69 | 1015.3 |
| 20260902020251 | 58 | 221 | 2.6 | 7.0 | 0.00 | 0.00 | 0.00 | 69 | 1015.3 |
| 20260902015751 | 58 | 196 | 1.7 | 7.0 | 0.00 | 0.00 | 0.00 | 69 | 1015.4 |
| 20260902015248 | 58 | 258 | 1.7 | 7.0 | 0.00 | 0.00 | 0.00 | 68 | 1015.4 |
| 20260902014748 | 58 | 207 | 1.7 | 7.0 | 0.00 | 0.00 | 0.00 | 68 | 1015.4 |
| 20260902014247 | 58 | 185 | 1.7 | 7.0 | 0.00 | 0.00 | 0.00 | 69 | 1015.5 |
| 20260902013747 | 58 | 170 | 1.7 | 5.2 | 0.00 | 0.00 | 0.00 | 69 | 1015.5 |
| 20260902013249 | 58 | 212 | 1.7 | 5.2 | 0.00 | 0.00 | 0.00 | 68 | 1015.5 |
| 20260902012749 | 58 | 193 | 1.7 | 7.0 | 0.00 | 0.00 | 0.00 | 68 | 1015.6 |
| 20260902012247 | 58 | 202 | 1.7 | 7.0 | 0.00 | 0.00 | 0.00 | 67 | 1015.8 |
| 20260902011747 | 58 | 175 | 1.7 | 7.0 | 0.00 | 0.00 | 0.00 | 68 | 1015.7 |
| 20260902011249 | 58 | 185 | 1.7 | 7.0 | 0.00 | 0.00 | 0.00 | 69 | 1015.8 |
| 20260902010748 | 58 | 216 | 1.7 | 5.2 | 0.00 | 0.00 | 0.00 | 68 | 1015.9 |
| 20260902010247 | 58 | 237 | 1.7 | 7.8 | 0.00 | 0.00 | 0.00 | 68 | 1015.9 |
| 20260902005747 | 58 | 230 | 1.7 | 7.8 | 0.00 | 0.00 | 0.00 | 68 | 1016.0 |
| 20260902005249 | 58 | 244 | 1.7 | 6.1 | 0.00 | 0.00 | 0.00 | 70 | 1016.0 |
| 20260902004747 | 58 | 227 | 1.7 | 6.1 | 0.00 | 0.00 | 0.00 | 70 | 1016.1 |
| 20260902004254 | 58 | 224 | 1.7 | 4.3 | 0.00 | 0.00 | 0.00 | 70 | 1016.2 |
| 20260902004249 | 58 | 221 | 0.9 | 4.3 | 0.00 | 0.00 | 0.00 | 70 | 1016.1 |
| 20260902003911 | 58 | 256 | 1.7 | 7.8 | 0.00 | 0.00 | 0.00 | 69 | 1016.2 |
| 20260902002748 | 58 | 260 | 2.6 | 7.8 | 0.00 | 0.00 | 0.00 | 69 | 1016.2 |
| 20260902002248 | 58 | 215 | 1.7 | 5.2 | 0.00 | 0.00 | 0.00 | 68 | 1016.2 |
| 20260902001747 | 58 | 204 | 0.9 | 5.2 | 0.00 | 0.00 | 0.00 | 69 | 1016.3 |
| 20260902001249 | 58 | 256 | 0.9 | 7.0 | 0.00 | 0.00 | 0.00 | 69 | 1016.3 |
| 20260902000753 | 58 | 180 | 1.7 | 7.0 | 0.00 | 0.00 | 0.00 | 70 | 1016.4 |
| 20260902000749 | 58 | 200 | 1.7 | 7.0 | 0.00 | 0.00 | 0.00 | 69 | 1016.4 |
| 20260902000245 | 58 | 214 | 1.7 | 7.0 | 0.00 | 0.00 | 0.00 | 70 | 1016.4 |
| 20260901235242 | 57 | 191 | 1.7 | 7.0 | 0.00 | 0.00 | 0.00 | 71 | 1016.4 |
| 20260901234743 | 57 | 219 | 1.7 | 7.0 | 0.00 | 0.00 | 0.00 | 70 | 1016.5 |
| 20260901234245 | 57 | 180 | 0.9 | 5.2 | 0.00 | 0.00 | 0.00 | 71 | 1016.5 |
| 20260901233742 | 57 | 202 | 0.9 | 6.1 | 0.00 | 0.00 | 0.00 | 72 | 1016.5 |
| 20260901233246 | 57 | 227 | 1.7 | 8.7 | 0.00 | 0.00 | 0.00 | 72 | 1016.5 |
| 20260901233240 | 57 | 199 | 0.9 | 6.1 | 0.00 | 0.00 | 0.00 | 72 | 1016.5 |
| 20260901232905 | 57 | 253 | 0.9 | 7.0 | 0.00 | 0.00 | 0.00 | 72 | 1016.4 |
| 20260901232237 | 57 | 224 | 1.7 | 8.7 | 0.00 | 0.00 | 0.00 | 72 | 1016.5 |
| 20260901231235 | 57 | 205 | 0.9 | 6.1 | 0.00 | 0.00 | 0.00 | 73 | 1016.5 |
| 20260901230735 | 57 | 280 | 0.0 | 2.6 | 0.00 | 0.00 | 0.00 | 73 | 1016.4 |
| 20260901230235 | 57 | 286 | 0.0 | 2.6 | 0.00 | 0.00 | 0.00 | 74 | 1016.5 |
| 20260901225734 | 56 | 306 | 0.9 | 6.1 | 0.00 | 0.00 | 0.00 | 74 | 1016.5 |
| 20260901225239 | 56 | 210 | 0.9 | 5.2 | 0.00 | 0.00 | 0.00 | 74 | 1016.5 |
| 20260901225233 | 56 | 264 | 0.9 | 6.1 | 0.00 | 0.00 | 0.00 | 73 | 1016.5 |
| 20260901224233 | 56 | 222 | 0.9 | 6.1 | 0.00 | 0.00 | 0.00 | 74 | 1016.4 |
| 20260901223733 | 56 | 220 | 0.9 | 6.1 | 0.00 | 0.00 | 0.00 | 74 | 1016.4 |
| 20260901223236 | 56 | 262 | 0.9 | 7.8 | 0.00 | 0.00 | 0.00 | 74 | 1016.5 |
| 20260901223230 | 56 | 269 | 0.9 | 7.8 | 0.00 | 0.00 | 0.00 | 74 | 1016.5 |
| 20260901222230 | 56 | 205 | 0.9 | 5.2 | 0.00 | 0.00 | 0.00 | 75 | 1016.4 |
| 20260901221731 | 56 | 238 | 0.9 | 5.2 | 0.00 | 0.00 | 0.00 | 75 | 1016.4 |
| 20260901221232 | 56 | 203 | 0.9 | 6.1 | 0.00 | 0.00 | 0.00 | 75 | 1016.2 |
| 20260901220731 | 55 | 230 | 1.7 | 9.6 | 0.00 | 0.00 | 0.00 | 76 | 1016.2 |
| 20260901220231 | 55 | 235 | 0.9 | 9.6 | 0.00 | 0.00 | 0.00 | 76 | 1016.1 |
| 20260901215732 | 55 | 197 | 0.9 | 6.1 | 0.00 | 0.00 | 0.00 | 77 | 1016.1 |
| 20260901214732 | 55 | 262 | 0.9 | 7.0 | 0.00 | 0.00 | 0.00 | 78 | 1015.9 |
| 20260901214229 | 55 | 193 | 0.9 | 7.0 | 0.00 | 0.00 | 0.00 | 78 | 1015.8 |
| 20260901213729 | 55 | 241 | 0.0 | 4.3 | 0.00 | 0.00 | 0.00 | 78 | 1015.8 |
| 20260901213229 | 55 | 194 | 0.9 | 7.8 | 0.00 | 0.00 | 0.00 | 78 | 1015.7 |
| 20260901212728 | 55 | 193 | 0.9 | 7.8 | 0.00 | 0.00 | 0.00 | 79 | 1015.6 |
| 20260901212230 | 55 | 224 | 0.0 | 5.2 | 0.00 | 0.00 | 0.00 | 80 | 1015.6 |
| 20260901211730 | 55 | 214 | 0.0 | 4.3 | 0.00 | 0.00 | 0.00 | 81 | 1015.7 |
| 20260901211230 | 55 | 252 | 0.0 | 4.3 | 0.00 | 0.00 | 0.00 | 81 | 1015.7 |
| 20260901210729 | 55 | 225 | 0.0 | 3.5 | 0.00 | 0.00 | 0.00 | 82 | 1015.6 |
| 20260901210227 | 55 | 226 | 0.0 | 4.3 | 0.00 | 0.00 | 0.00 | 82 | 1015.5 |
| 20260901205726 | 55 | 238 | 0.9 | 4.3 | 0.00 | 0.00 | 0.00 | 83 | 1015.5 |
| 20260901205226 | 55 | 258 | 0.0 | 4.3 | 0.00 | 0.00 | 0.00 | 83 | 1015.5 |
| 20260901204732 | 55 | 251 | 0.0 | 4.3 | 0.00 | 0.00 | 0.00 | 84 | 1015.4 |
| 20260901204726 | 55 | 232 | 0.0 | 4.3 | 0.00 | 0.00 | 0.00 | 83 | 1015.4 |
| 20260901203727 | 55 | 235 | 0.0 | 3.5 | 0.00 | 0.00 | 0.00 | 84 | 1015.3 |
| 20260901203227 | 55 | 198 | 0.0 | 3.5 | 0.00 | 0.00 | 0.00 | 84 | 1015.2 |
| 20260901202726 | 55 | 212 | 0.0 | 4.3 | 0.00 | 0.00 | 0.00 | 84 | 1015.2 |
| 20260901202228 | 55 | 218 | 0.0 | 4.3 | 0.00 | 0.00 | 0.00 | 84 | 1015.0 |
| 20260901201727 | 56 | 199 | 0.0 | 2.6 | 0.00 | 0.00 | 0.00 | 84 | 1015.0 |
| 20260901201227 | 56 | 199 | 0.0 | 4.3 | 0.00 | 0.00 | 0.00 | 85 | 1014.9 |
| 20260901200725 | 56 | 200 | 0.0 | 4.3 | 0.00 | 0.00 | 0.00 | 85 | 1014.8 |
| 20260901200225 | 56 | 225 | 0.0 | 1.7 | 0.00 | 0.00 | 0.00 | 85 | 1014.8 |
| 20260901195731 | 56 | 233 | 0.0 | 1.7 | 0.00 | 0.00 | 0.00 | 85 | 1014.8 |
| 20260901195725 | 56 | 235 | 0.0 | 1.7 | 0.00 | 0.00 | 0.00 | 85 | 1014.8 |
| 20260901194724 | 56 | 235 | 0.0 | 2.6 | 0.00 | 0.00 | 0.00 | 85 | 1014.8 |
| 20260901194227 | 56 | 233 | 0.0 | 3.5 | 0.00 | 0.00 | 0.00 | 85 | 1014.8 |
| 20260901193726 | 56 | 216 | 0.0 | 3.5 | 0.00 | 0.00 | 0.00 | 85 | 1014.8 |
| 20260901193225 | 56 | 226 | 0.0 | 3.5 | 0.00 | 0.00 | 0.00 | 85 | 1014.7 |
| 20260901192724 | 56 | 223 | 0.0 | 3.5 | 0.00 | 0.00 | 0.00 | 85 | 1014.7 |
| 20260901192223 | 56 | 198 | 0.0 | 0.9 | 0.00 | 0.00 | 0.00 | 85 | 1014.7 |
| 20260901191722 | 56 | 185 | 0.0 | 6.1 | 0.00 | 0.00 | 0.00 | 85 | 1014.6 |
| 20260901191223 | 56 | 185 | 0.0 | 6.1 | 0.00 | 0.00 | 0.00 | 85 | 1014.5 |
| 20260901190722 | 56 | 226 | 0.0 | 2.6 | 0.00 | 0.00 | 0.00 | 85 | 1014.5 |
| 20260901190223 | 56 | 197 | 0.0 | 3.5 | 0.00 | 0.00 | 0.00 | 85 | 1014.4 |
| 20260901185724 | 56 | 195 | 0.9 | 5.2 | 0.00 | 0.00 | 0.00 | 85 | 1014.3 |
| 20260901185223 | 56 | 257 | 0.9 | 5.2 | 0.00 | 0.00 | 0.00 | 85 | 1014.3 |
| 20260901184728 | 57 | 243 | 0.9 | 4.3 | 0.00 | 0.00 | 0.00 | 85 | 1014.2 |
| 20260901184724 | 56 | 233 | 0.9 | 4.3 | 0.00 | 0.00 | 0.00 | 85 | 1014.2 |
| 20260901183721 | 57 | 224 | 0.9 | 3.5 | 0.00 | 0.00 | 0.00 | 85 | 1014.1 |
| 20260901183220 | 57 | 218 | 0.9 | 4.3 | 0.00 | 0.00 | 0.00 | 85 | 1014.1 |
| 20260901182720 | 57 | 233 | 0.9 | 4.3 | 0.00 | 0.00 | 0.00 | 85 | 1014.0 |
| 20260901182220 | 58 | 222 | 0.0 | 4.3 | 0.00 | 0.00 | 0.00 | 85 | 1013.9 |
| 20260901181720 | 58 | 235 | 0.9 | 7.0 | 0.00 | 0.00 | 0.00 | 84 | 1013.8 |
| 20260901181218 | 58 | 239 | 1.7 | 8.7 | 0.00 | 0.00 | 0.00 | 84 | 1013.7 |
| 20260901180718 | 58 | 237 | 1.7 | 8.7 | 0.00 | 0.00 | 0.00 | 84 | 1013.6 |
| 20260901180218 | 59 | 270 | 1.7 | 6.1 | 0.00 | 0.00 | 0.00 | 83 | 1013.5 |
| 20260901175720 | 59 | 247 | 1.7 | 7.8 | 0.00 | 0.00 | 0.00 | 82 | 1013.5 |
| 20260901175218 | 60 | 220 | 2.6 | 7.8 | 0.00 | 0.00 | 0.00 | 80 | 1013.4 |
| 20260901174719 | 60 | 240 | 2.6 | 7.8 | 0.00 | 0.00 | 0.00 | 77 | 1013.4 |
| 20260901174218 | 61 | 226 | 1.7 | 7.8 | 0.00 | 0.00 | 0.00 | 75 | 1013.4 |
| 20260901173718 | 62 | 224 | 2.6 | 7.0 | 0.00 | 0.00 | 0.00 | 74 | 1013.2 |
| 20260901173218 | 62 | 310 | 2.6 | 7.0 | 0.00 | 0.00 | 0.00 | 74 | 1012.8 |
| 20260901172717 | 62 | 309 | 2.6 | 7.8 | 0.00 | 0.00 | 0.00 | 73 | 1012.8 |
| 20260901172224 | 62 | 306 | 2.6 | 7.8 | 0.00 | 0.00 | 0.00 | 73 | 1012.8 |
| 20260901172218 | 62 | 310 | 3.5 | 7.8 | 0.00 | 0.00 | 0.00 | 73 | 1012.8 |
| 20260901171218 | 62 | 309 | 2.6 | 7.0 | 0.00 | 0.00 | 0.00 | 73 | 1012.7 |
| 20260901170718 | 62 | 321 | 2.6 | 7.0 | 0.00 | 0.00 | 0.00 | 73 | 1012.8 |
| 20260901170218 | 62 | 313 | 3.5 | 7.8 | 0.00 | 0.00 | 0.00 | 73 | 1012.8 |
| 20260901165718 | 62 | 291 | 3.5 | 7.8 | 0.00 | 0.00 | 0.00 | 73 | 1012.8 |
| 20260901165218 | 62 | 341 | 3.5 | 7.8 | 0.00 | 0.00 | 0.00 | 73 | 1012.9 |
| 20260901164724 | 62 | 316 | 2.6 | 6.1 | 0.00 | 0.00 | 0.00 | 72 | 1013.0 |
| 20260901164720 | 62 | 299 | 2.6 | 7.8 | 0.00 | 0.00 | 0.00 | 73 | 1012.9 |
| 20260901163716 | 62 | 303 | 2.6 | 6.1 | 0.00 | 0.00 | 0.00 | 72 | 1013.0 |
| 20260901163218 | 62 | 307 | 2.6 | 7.8 | 0.00 | 0.00 | 0.00 | 72 | 1013.0 |
| 20260901162715 | 62 | 309 | 2.6 | 7.8 | 0.00 | 0.00 | 0.00 | 72 | 1013.1 |
| 20260901162215 | 62 | 315 | 2.6 | 5.2 | 0.00 | 0.00 | 0.00 | 72 | 1013.1 |
| 20260901161714 | 62 | 312 | 2.6 | 6.1 | 0.00 | 0.00 | 0.00 | 71 | 1013.1 |
| 20260901161213 | 62 | 337 | 3.5 | 8.7 | 0.00 | 0.00 | 0.00 | 71 | 1013.1 |
| 20260901160714 | 62 | 303 | 3.5 | 8.7 | 0.00 | 0.00 | 0.00 | 71 | 1013.2 |
| 20260901160215 | 62 | 310 | 3.5 | 7.8 | 0.00 | 0.00 | 0.00 | 71 | 1013.1 |
| 20260901160211 | 62 | 335 | 3.5 | 7.8 | 0.00 | 0.00 | 0.00 | 71 | 1013.2 |
| 20260901155214 | 62 | 305 | 3.5 | 7.8 | 0.00 | 0.00 | 0.00 | 71 | 1013.2 |
| 20260901155208 | 62 | 334 | 2.6 | 7.0 | 0.00 | 0.00 | 0.00 | 71 | 1013.2 |
| 20260901154209 | 62 | 334 | 2.6 | 8.7 | 0.00 | 0.00 | 0.00 | 71 | 1013.2 |
| 20260901153710 | 62 | 359 | 3.5 | 8.7 | 0.00 | 0.00 | 0.00 | 70 | 1013.2 |
| 20260901153208 | 62 | 322 | 3.5 | 7.8 | 0.00 | 0.00 | 0.00 | 70 | 1013.2 |
| 20260901152712 | 63 | 312 | 3.5 | 7.8 | 0.00 | 0.00 | 0.00 | 70 | 1013.2 |
| 20260901152707 | 63 | 325 | 3.5 | 7.0 | 0.00 | 0.00 | 0.00 | 70 | 1013.1 |
| 20260901151708 | 63 | 305 | 2.6 | 7.8 | 0.00 | 0.00 | 0.00 | 70 | 1013.2 |
| 20260901151207 | 63 | 303 | 3.5 | 7.8 | 0.00 | 0.00 | 0.00 | 69 | 1013.2 |
| 20260901150704 | 63 | 343 | 3.5 | 7.8 | 0.00 | 0.00 | 0.00 | 69 | 1013.2 |
| 20260901150204 | 63 | 318 | 2.6 | 7.0 | 0.00 | 0.00 | 0.00 | 69 | 1013.1 |
| 20260901145704 | 63 | 330 | 3.5 | 6.1 | 0.00 | 0.00 | 0.00 | 69 | 1013.1 |
| 20260901145203 | 63 | 295 | 3.5 | 7.8 | 0.00 | 0.00 | 0.00 | 69 | 1013.1 |
| 20260901144710 | 63 | 313 | 3.5 | 7.8 | 0.00 | 0.00 | 0.00 | 68 | 1013.2 |
| 20260901144704 | 63 | 299 | 3.5 | 7.8 | 0.00 | 0.00 | 0.00 | 68 | 1013.1 |
| 20260901144339 | 64 | 312 | 3.5 | 8.7 | 0.00 | 0.00 | 0.00 | 68 | 1013.1 |
| 20260901144334 | 64 | 314 | 3.5 | 8.7 | 0.00 | 0.00 | 0.00 | 68 | 1013.1 |
| 20260901143333 | 64 | 330 | 3.5 | 10.4 | 0.00 | 0.00 | 0.00 | 68 | 1013.1 |
| 20260901142205 | 63 | 329 | 3.5 | 10.4 | 0.00 | 0.00 | 0.00 | 68 | 1013.1 |